Regional Weather Roundup
Issued by NWS

Home | Current Version | Previous Version | Graphics & Text | Print | Product List | Glossary On
Versions: 1 2 3 4 5 6 7 8 9 10 11 12 13 14 15 16 17 18 19 20 21 22 23 24 25 26 27 28 29 30 31 32 33 34 35 36 37 38 39 40 41 42 43 44 45 46 47 48 49 50
000
ASUS43 KFSD 011502
RWRSD

WEATHER ROUNDUP FOR SOUTH DAKOTA
NATIONAL WEATHER SERVICE SIOUX FALLS SD
1000 AM CDT TUE SEP 01 2015

NOTE: "FAIR" INDICATES FEW OR NO CLOUDS BELOW 12,000 FEET WITH NO
SIGNIFICANT WEATHER AND/OR OBSTRUCTIONS TO VISIBILITY.


SDZ001>005-009-010-012>017-011600-
NORTHWEST AND NORTH CENTRAL SOUTH DAKOTA

CITY           SKY/WX    TMP DP  RH WIND       PRES   REMARKS
BUFFALO          N/A     66  59  78 S9        29.82F
FAITH            N/A     69  60  73 SE14      29.86F
MOBRIDGE       SUNNY     72  65  78 SE8       29.85F
$$

SDZ012>016-024>037-041>051-057-063-072>074-011600-
SOUTHWEST AND SOUTH CENTRAL SOUTH DAKOTA

CITY           SKY/WX    TMP DP  RH WIND       PRES   REMARKS
RAPID CTY ARPT SUNNY     73  55  53 NW8       29.87F
PIERRE         SUNNY     68  64  87 SE9       29.87S
CUSTER         SUNNY     70  46  42 W6        30.03S
ELLSWORTH AFB  SUNNY     70  54  56 N10       29.87S
PHILIP         SUNNY     73  66  78 SE9       29.86S
PINE RIDGE     SUNNY     73  53  49 SW7       29.92S
WINNER         FAIR      72  67  84 NE3       29.90F
$$

SDZ004>011-016>023-039-040-011600-
NORTHEAST SOUTH DAKOTA

CITY           SKY/WX    TMP DP  RH WIND       PRES   REMARKS
ABERDEEN       SUNNY     74  66  76 SE9       29.87F
WATERTOWN      PTSUNNY   74  64  71 E12G18    29.89F
BROOKINGS      CLOUDY    72  66  83 SE12      29.92F
$$

SDZ017-020-022-023-036>040-048>070-011600-
SOUTHEAST SOUTH DAKOTA

CITY           SKY/WX    TMP DP  RH WIND       PRES   REMARKS
SIOUX FALLS    CLOUDY    73  68  84 SE7       29.89F
HURON          CLOUDY    73  70  90 S9        29.87R FOG
CHAMBERLAIN    PTSUNNY   69  67  92 CALM      29.90F
MITCHELL       LGT RAIN  69  67  93 SW12G24   29.91R FOG
YANKTON        PTSUNNY   72  68  88 SE3       29.87R
$$

ABBREVIATIONS USED IN REMARKS
   TC - TEMPERATURE IN CELSIUS
  WCI - WIND CHILL INDEX
   HX - HEAT INDEX
  VSB - VISIBILITY




USA.gov is the U.S. government's official web portal to all federal, state and local government web resources and services.